Alexandria, Egypt

5:58 AM EET on February 12, 2016 (GMT +0200)
Alexandria International

Weather History for HEAX - October, 2011

Change the Weather History Date:

Thursday, October 13, 2011

  Actual Average Record
Temperature  
Mean Temperature 68 °F -  
Max Temperature 78 °F 75 °F 93 °F (1998)
Min Temperature 58 °F 61 °F 59 °F (2011)
Cooling Degree Days 3    
Growing Degree Days 18 (Base 50)    
Moisture  
Dew Point 58 °F    
Average Humidity 66    
Maximum Humidity 88    
Minimum Humidity 41    
Precipitation  
Precipitation 0.00 in 0.02 in - ()
Sea Level Pressure  
Sea Level Pressure 30.00 in    
Wind  
Wind Speed 2 mph ()    
Max Wind Speed 12 mph    
Max Gust Speed -    
Visibility 6.2 miles    
Events      
Averages and records for this station are not official NWS values.
T = Trace of Precipitation, MM = Missing Value Source: Averaged Metar Reports

Daily Weather History Graph

Daily Weather History Graph

Search for Another Location

Airport or City:

Trip Planner

Search our weather history database for the weather conditions in past years. The results will help you decide how hot, cold, wet, or windy it might be!

Date:

Astronomy

Oct. 13, 2011 Rise Set
Actual Time 6:01 AM EET 5:31 PM EET
Civil Twilight 5:36 AM EET 5:55 PM EET
Nautical Twilight 5:08 AM EET 6:23 PM EET
Astronomical Twilight 4:40 AM EET 6:51 PM EET
Moon 6:05 PM EET (10/13) 7:05 AM EET (10/13)
Length of Visible Light 12h 18m
Length of Day
11h 30m
Full, 98% of the Moon is Illuminated
Oct 13
Full
Oct 20
Last Quarter
Oct 26
New
Nov 2
First Quarter
Nov 10
Full

Hourly Weather History & Observations

Time (EET) Temp. Dew Point Humidity Pressure Visibility Wind Dir Wind Speed Gust Speed Precip Events Conditions
12:00 AM 68.0 °F 57.2 °F 68% 30.01 in - Calm Calm - N/A   Clear
1:00 AM 64.4 °F 59.0 °F 83% 30.01 in - Calm Calm - N/A   Clear
2:00 AM 61 °F 56 °F 80% 30.00 in 6 mi Calm Calm - -  
2:00 AM 60.8 °F 57.2 °F 88% 30.01 in - Calm Calm - N/A   Clear
3:00 AM 59.0 °F 55.4 °F 88% 29.98 in - Calm Calm - N/A   Clear
4:00 AM 59.0 °F 55.4 °F 88% 29.98 in 6.2 mi South 2.3 mph - N/A   Scattered Clouds
5:00 AM 60.8 °F 57.2 °F 88% 29.98 in 6.2 mi Calm Calm - N/A   Scattered Clouds
6:00 AM 60.8 °F 57.2 °F 88% 29.98 in 6.2 mi South 2.3 mph - N/A   Scattered Clouds
7:00 AM 62.6 °F 57.2 °F 82% 30.01 in 6.2 mi Calm Calm - N/A   Scattered Clouds
8:00 AM 68 °F 59 °F 67% 30.02 in 6 mi SSW 3.5 mph - -   Partly Cloudy
8:00 AM 68.0 °F 59.0 °F 73% 30.01 in 6.2 mi SSW 3.5 mph - N/A   Scattered Clouds
9:00 AM 75.2 °F 59.0 °F 57% 30.01 in 6.2 mi SSW 4.6 mph - N/A   Scattered Clouds
10:00 AM 77.0 °F 59.0 °F 54% 30.01 in 6.2 mi South 3.5 mph - N/A   Scattered Clouds
11:00 AM 78.8 °F 59.0 °F 51% 30.01 in 6.2 mi Calm Calm - N/A   Scattered Clouds
12:00 PM 78.8 °F 59.0 °F 51% 30.01 in 6.2 mi NW 3.5 mph - N/A   Scattered Clouds
1:00 PM 77.0 °F 59.0 °F 54% 29.98 in 6.2 mi NNW 5.8 mph - N/A   Scattered Clouds
2:00 PM 78 °F 59 °F 41% 29.97 in 6 mi North 10.4 mph - -   Scattered Clouds
2:00 PM 78.8 °F 59.0 °F 51% 29.98 in 6.2 mi North 10.4 mph - N/A   Partly Cloudy
3:00 PM 78.8 °F 59.0 °F 51% 29.98 in 6.2 mi NNW 11.5 mph - N/A   Partly Cloudy
5:00 PM 75.2 °F 57.2 °F 53% 29.98 in 6.2 mi North 8.1 mph - N/A   Partly Cloudy
6:00 PM 73.4 °F 57.2 °F 57% 30.01 in 6.2 mi North 6.9 mph - N/A   Partly Cloudy
7:00 PM 73.4 °F 59.0 °F 61% 30.01 in 6.2 mi NNW 5.8 mph - N/A   Scattered Clouds
8:00 PM 72 °F 61 °F 59% 30.04 in 6 mi NE 3.5 mph - -   Partly Cloudy
8:00 PM 71.6 °F 60.8 °F 69% 30.04 in 6.2 mi NE 3.5 mph - N/A   Scattered Clouds
9:00 PM 71.6 °F 59.0 °F 64% 30.04 in 6.2 mi NE 3.5 mph - N/A   Scattered Clouds
10:00 PM 71.6 °F 59.0 °F 64% 30.04 in 6.2 mi NE 4.6 mph - N/A   Scattered Clouds
11:00 PM 71.6 °F 59.0 °F 64% 30.01 in 6.2 mi ENE 5.8 mph - N/A   Partly Cloudy